Location: Zagreb
(45.8000°N, 16.0000°E)
Time: 01:02:12
(UTC+02:00)

Transit 2A Rocket - Pass Details

Date: 30 January 2022
Orbit: 592 x 909 km, 66.7° (Epoch: 26 May)

Event Time Altitude Azimuth Distance (km) Brightness Sun altitude
Rises 19:09:41 0° 251° (WSW) 3,519 9.7 -22.9°
Reaches altitude 10° 19:12:36 10° 263° (W) 2,593 8.8 -23.4°
Maximum altitude 19:17:41 27° 320° (NW) 1,673 7.1 -24.3°
Enters shadow 19:22:24 11° 15° (NNE) 2,470 7.5 -25.1°
Drops below altitude 10° 19:22:44 10° 17° (NNE) 2,568 - -25.2°
Sets 19:25:37 0° 30° (NNE) 3,478 - -25.7°
